Time,TemperatureF,DewpointF,PressureIn,WindDirection,WindDirectionDegrees,WindSpeedMPH,WindSpeedGustMPH,Humidity,HourlyPrecipIn,Conditions,Clouds,dailyrainin,SoftwareType,DateUTC
2013-02-07 00:00:00,71.5,66.1,30.09,ENE,78,2.0,9.0,83,0.00,,---,0.20,VWS V14.00,2013-02-07 10:00:00,
2013-02-07 00:05:00,71.5,66.1,30.09,ENE,78,0.0,4.0,83,0.00,,---,0.00,VWS V14.00,2013-02-07 10:05:00,
2013-02-07 00:10:00,71.6,66.2,30.09,NE,54,0.0,7.0,83,0.00,,---,0.00,VWS V14.00,2013-02-07 10:10:00,
2013-02-07 00:15:00,71.7,66.3,30.09,ENE,59,2.0,7.0,83,0.00,,---,0.00,VWS V14.00,2013-02-07 10:15:00,
2013-02-07 00:20:00,71.7,66.3,30.09,ENE,61,0.0,7.0,83,0.00,,---,0.00,VWS V14.00,2013-02-07 10:20:00,
2013-02-07 00:25:00,71.8,66.7,30.09,ENE,61,2.0,7.0,84,0.00,,---,0.00,VWS V14.00,2013-02-07 10:25:00,
2013-02-07 00:30:00,71.8,66.4,30.09,ENE,62,3.0,7.0,83,0.00,,---,0.00,VWS V14.00,2013-02-07 10:30:00,
2013-02-07 00:35:00,71.7,66.3,30.08,ESE,107,4.0,6.0,83,0.00,,---,0.00,VWS V14.00,2013-02-07 10:35:00,
2013-02-07 00:40:00,71.7,66.3,30.08,East,98,0.0,6.0,83,0.00,,---,0.00,VWS V14.00,2013-02-07 10:40:00,
2013-02-07 00:45:00,71.6,66.2,30.08,ENE,75,0.0,7.0,83,0.00,,---,0.00,VWS V14.00,2013-02-07 10:45:00,
2013-02-07 00:50:00,71.7,66.3,30.08,NE,36,0.0,7.0,83,0.00,,---,0.00,VWS V14.00,2013-02-07 10:50:00,
2013-02-07 00:55:00,71.7,66.3,30.08,East,93,0.0,7.0,83,0.00,,---,0.00,VWS V14.00,2013-02-07 10:55:00,
2013-02-07 01:00:00,71.7,66.3,30.08,East,80,2.0,7.0,83,0.00,,---,0.00,VWS V14.00,2013-02-07 11:00:00,
2013-02-07 01:05:00,71.6,66.2,30.08,ENE,77,5.0,11.0,83,0.00,,---,0.00,VWS V14.00,2013-02-07 11:05:00,
2013-02-07 01:10:00,71.7,66.3,30.08,North,355,6.0,11.0,83,0.00,,---,0.00,VWS V14.00,2013-02-07 11:10:00,
2013-02-07 01:15:00,71.7,65.9,30.08,ENE,58,5.0,11.0,82,0.00,,---,0.00,VWS V14.00,2013-02-07 11:15:00,
2013-02-07 01:20:00,71.7,65.9,30.08,NE,54,4.0,12.0,82,0.00,,---,0.00,VWS V14.00,2013-02-07 11:20:00,
2013-02-07 01:25:00,71.6,65.8,30.07,NE,50,3.0,12.0,82,0.00,,---,0.00,VWS V14.00,2013-02-07 11:25:00,
2013-02-07 01:30:00,71.7,65.9,30.07,NE,50,0.0,12.0,82,0.00,,---,0.00,VWS V14.00,2013-02-07 11:30:00,
2013-02-07 01:35:00,71.7,66.3,30.07,NE,39,5.0,10.0,83,0.00,,---,0.00,VWS V14.00,2013-02-07 11:35:00,
2013-02-07 01:40:00,71.8,66.4,30.07,NE,39,6.0,10.0,83,0.00,,---,0.00,VWS V14.00,2013-02-07 11:40:00,
2013-02-07 01:45:00,71.8,66.0,30.07,ENE,59,3.0,10.0,82,0.00,,---,0.00,VWS V14.00,2013-02-07 11:45:00,
2013-02-07 01:50:00,71.9,66.5,30.07,SE,146,4.0,10.0,83,0.00,,---,0.00,VWS V14.00,2013-02-07 11:50:00,
2013-02-07 01:55:00,71.8,66.4,30.07,ENE,57,6.0,10.0,83,0.00,,---,0.00,VWS V14.00,2013-02-07 11:55:00,
2013-02-07 02:00:00,71.7,66.3,30.07,NE,53,3.0,10.0,83,0.00,,---,0.00,VWS V14.00,2013-02-07 12:00:00,
2013-02-07 02:05:00,71.7,66.6,30.07,NE,43,3.0,3.0,84,0.00,,---,0.00,VWS V14.00,2013-02-07 12:05:00,
2013-02-07 02:10:00,71.7,66.6,30.07,ENE,74,0.0,10.0,84,0.00,,---,0.00,VWS V14.00,2013-02-07 12:10:00,
2013-02-07 02:15:00,71.6,66.5,30.06,ENE,71,2.0,10.0,84,0.00,,---,0.00,VWS V14.00,2013-02-07 12:15:00,
2013-02-07 02:20:00,71.6,66.5,30.06,ENE,72,2.0,10.0,84,0.00,,---,0.00,VWS V14.00,2013-02-07 12:20:00,
2013-02-07 02:25:00,71.7,66.6,30.06,ENE,67,8.0,13.0,84,0.00,,---,0.00,VWS V14.00,2013-02-07 12:25:00,
2013-02-07 02:30:00,71.8,66.7,30.06,East,97,2.0,13.0,84,0.00,,---,0.00,VWS V14.00,2013-02-07 12:30:00,
2013-02-07 02:35:00,71.8,66.7,30.06,ENE,76,1.0,6.0,84,0.00,,---,0.00,VWS V14.00,2013-02-07 12:35:00,
2013-02-07 02:40:00,71.8,66.7,30.06,ENE,67,3.0,6.0,84,0.00,,---,0.00,VWS V14.00,2013-02-07 12:40:00,
2013-02-07 02:45:00,71.7,66.6,30.06,East,81,5.0,12.0,84,0.00,,---,0.00,VWS V14.00,2013-02-07 12:45:00,
2013-02-07 02:50:00,71.7,66.3,30.06,NE,50,4.0,12.0,83,0.00,,---,0.00,VWS V14.00,2013-02-07 12:50:00,
2013-02-07 02:55:00,71.7,66.3,30.06,ENE,63,0.0,12.0,83,0.00,,---,0.00,VWS V14.00,2013-02-07 12:55:00,
2013-02-07 03:00:00,71.7,66.3,30.06,NE,39,6.0,12.0,83,0.00,,---,0.00,VWS V14.00,2013-02-07 13:00:00,
2013-02-07 03:05:00,71.8,66.4,30.06,ENE,60,0.0,6.0,83,0.00,,---,0.00,VWS V14.00,2013-02-07 13:05:00,
2013-02-07 03:10:00,71.8,66.4,30.06,ENE,58,0.0,6.0,83,0.00,,---,0.00,VWS V14.00,2013-02-07 13:10:00,
2013-02-07 03:15:00,71.8,66.7,30.06,ENE,61,3.0,6.0,84,0.00,,---,0.00,VWS V14.00,2013-02-07 13:15:00,
2013-02-07 03:20:00,71.8,66.7,30.06,ENE,63,0.0,7.0,84,0.00,,---,0.00,VWS V14.00,2013-02-07 13:20:00,
2013-02-07 03:25:00,71.7,66.6,30.06,ENE,59,2.0,8.0,84,0.00,,---,0.00,VWS V14.00,2013-02-07 13:25:00,
2013-02-07 03:30:00,71.7,66.6,30.06,ENE,69,2.0,10.0,84,0.00,,---,0.00,VWS V14.00,2013-02-07 13:30:00,
2013-02-07 03:35:00,71.8,66.7,30.06,NE,35,3.0,7.0,84,0.00,,---,0.00,VWS V14.00,2013-02-07 13:35:00,
2013-02-07 03:40:00,71.8,66.7,30.06,NE,35,1.0,7.0,84,0.00,,---,0.00,VWS V14.00,2013-02-07 13:40:00,
2013-02-07 03:45:00,71.7,66.6,30.06,NE,37,3.0,7.0,84,0.00,,---,0.00,VWS V14.00,2013-02-07 13:45:00,
2013-02-07 03:50:00,71.7,66.6,30.06,NE,42,2.0,7.0,84,0.00,,---,0.00,VWS V14.00,2013-02-07 13:50:00,
2013-02-07 03:55:00,71.7,66.6,30.06,NNE,26,0.0,7.0,84,0.00,,---,0.00,VWS V14.00,2013-02-07 13:55:00,
2013-02-07 04:00:00,71.7,66.6,30.06,NE,55,2.0,7.0,84,0.00,,---,0.00,VWS V14.00,2013-02-07 14:00:00,
2013-02-07 04:05:00,71.7,66.6,30.06,NE,55,0.0,2.0,84,0.00,,---,0.00,VWS V14.00,2013-02-07 14:05:00,
2013-02-07 04:10:00,71.7,66.6,30.06,NE,52,6.0,6.0,84,0.00,,---,0.00,VWS V14.00,2013-02-07 14:10:00,
2013-02-07 04:15:00,71.7,66.6,30.06,ENE,59,0.0,8.0,84,0.00,,---,0.00,VWS V14.00,2013-02-07 14:15:00,
2013-02-07 04:20:00,71.8,66.7,30.06,ENE,59,0.0,8.0,84,0.00,,---,0.00,VWS V14.00,2013-02-07 14:20:00,
2013-02-07 04:25:00,71.8,66.7,30.06,ENE,57,1.0,8.0,84,0.00,,---,0.00,VWS V14.00,2013-02-07 14:25:00,
2013-02-07 04:30:00,71.8,66.7,30.06,NE,52,4.0,8.0,84,0.00,,---,0.00,VWS V14.00,2013-02-07 14:30:00,
2013-02-07 04:35:00,71.7,66.3,30.06,ENE,57,0.0,5.0,83,0.00,,---,0.00,VWS V14.00,2013-02-07 14:35:00,
2013-02-07 04:40:00,71.7,66.3,30.06,NE,51,2.0,6.0,83,0.00,,---,0.00,VWS V14.00,2013-02-07 14:40:00,
2013-02-07 04:45:00,71.7,66.3,30.06,NE,52,1.0,6.0,83,0.00,,---,0.00,VWS V14.00,2013-02-07 14:45:00,
2013-02-07 04:50:00,71.8,66.4,30.06,NE,53,0.0,6.0,83,0.00,,---,0.00,VWS V14.00,2013-02-07 14:50:00,
2013-02-07 04:55:00,71.8,66.4,30.06,NE,53,0.0,6.0,83,0.00,,---,0.00,VWS V14.00,2013-02-07 14:55:00,
2013-02-07 05:00:00,71.8,66.4,30.06,NE,53,1.0,6.0,83,0.00,,---,0.00,VWS V14.00,2013-02-07 15:00:00,
2013-02-07 05:05:00,71.8,66.4,30.06,East,96,6.0,9.0,83,0.00,,---,0.00,VWS V14.00,2013-02-07 15:05:00,
2013-02-07 05:10:00,71.8,66.4,30.06,ENE,67,5.0,9.0,83,0.00,,---,0.00,VWS V14.00,2013-02-07 15:10:00,
2013-02-07 05:15:00,71.8,66.4,30.07,ENE,59,0.0,9.0,83,0.00,,---,0.00,VWS V14.00,2013-02-07 15:15:00,
2013-02-07 05:20:00,71.8,66.4,30.07,ENE,59,0.0,9.0,83,0.00,,---,0.00,VWS V14.00,2013-02-07 15:20:00,
2013-02-07 05:25:00,71.8,66.4,30.07,NE,53,0.0,9.0,83,0.00,,---,0.00,VWS V14.00,2013-02-07 15:25:00,
2013-02-07 05:30:00,71.9,66.8,30.07,ENE,70,3.0,9.0,84,0.00,,---,0.00,VWS V14.00,2013-02-07 15:30:00,
2013-02-07 05:35:00,71.8,66.4,30.07,ENE,69,1.0,4.0,83,0.00,,---,0.00,VWS V14.00,2013-02-07 15:35:00,
2013-02-07 05:40:00,71.7,66.6,30.07,ENE,69,0.0,4.0,84,0.00,,---,0.00,VWS V14.00,2013-02-07 15:40:00,
2013-02-07 05:45:00,71.6,66.5,30.07,ENE,63,0.0,5.0,84,0.00,,---,0.00,VWS V14.00,2013-02-07 15:45:00,
2013-02-07 05:50:00,71.6,66.5,30.07,ENE,57,4.0,6.0,84,0.00,,---,0.00,VWS V14.00,2013-02-07 15:50:00,
2013-02-07 05:55:00,71.7,66.6,30.08,ENE,58,0.0,6.0,84,0.00,,---,0.00,VWS V14.00,2013-02-07 15:55:00,
2013-02-07 06:00:00,71.6,66.5,30.08,NE,53,3.0,8.0,84,0.00,,---,0.00,VWS V14.00,2013-02-07 16:00:00,
2013-02-07 06:05:00,71.7,66.3,30.08,NE,44,2.0,5.0,83,0.00,,---,0.00,VWS V14.00,2013-02-07 16:05:00,
2013-02-07 06:10:00,71.7,66.3,30.08,NE,52,2.0,5.0,83,0.00,,---,0.00,VWS V14.00,2013-02-07 16:10:00,
2013-02-07 06:15:00,71.7,66.3,30.08,NE,54,3.0,5.0,83,0.00,,---,0.00,VWS V14.00,2013-02-07 16:15:00,
2013-02-07 06:20:00,71.8,66.4,30.08,ENE,71,2.0,5.0,83,0.00,,---,0.00,VWS V14.00,2013-02-07 16:20:00,
2013-02-07 06:25:00,71.9,66.5,30.08,ENE,67,2.0,5.0,83,0.00,,---,0.00,VWS V14.00,2013-02-07 16:25:00,
2013-02-07 06:30:00,71.9,66.5,30.08,ENE,64,0.0,5.0,83,0.00,,---,0.00,VWS V14.00,2013-02-07 16:30:00,
2013-02-07 06:35:00,71.8,66.4,30.09,ENE,64,0.0,1.0,83,0.00,,---,0.00,VWS V14.00,2013-02-07 16:35:00,
2013-02-07 06:40:00,71.7,66.3,30.09,ENE,64,1.0,5.0,83,0.00,,---,0.00,VWS V14.00,2013-02-07 16:40:00,
2013-02-07 06:45:00,71.8,66.7,30.09,ENE,61,0.0,7.0,84,0.00,,---,0.00,VWS V14.00,2013-02-07 16:45:00,
2013-02-07 06:50:00,71.8,66.4,30.09,ENE,71,3.0,7.0,83,0.00,,---,0.00,VWS V14.00,2013-02-07 16:50:00,
2013-02-07 06:55:00,71.8,66.4,30.09,East,92,4.0,11.0,83,0.00,,---,0.00,VWS V14.00,2013-02-07 16:55:00,
2013-02-07 07:00:00,71.9,66.5,30.09,NE,34,3.0,11.0,83,0.00,,---,0.00,VWS V14.00,2013-02-07 17:00:00,
2013-02-07 07:05:00,71.9,66.5,30.09,NE,43,0.0,8.0,83,0.00,,---,0.00,VWS V14.00,2013-02-07 17:05:00,
2013-02-07 07:10:00,71.9,66.5,30.09,NE,42,5.0,8.0,83,0.00,,---,0.00,VWS V14.00,2013-02-07 17:10:00,
2013-02-07 07:15:00,72.0,66.6,30.09,ESE,107,4.0,8.0,83,0.00,,---,0.00,VWS V14.00,2013-02-07 17:15:00,
2013-02-07 07:20:00,72.0,66.6,30.09,ESE,107,2.0,8.0,83,0.00,,---,0.00,VWS V14.00,2013-02-07 17:20:00,
2013-02-07 07:25:00,71.9,66.5,30.09,East,84,4.0,8.0,83,0.00,,---,0.00,VWS V14.00,2013-02-07 17:25:00,
2013-02-07 07:30:00,72.0,66.6,30.09,ENE,65,3.0,8.0,83,0.00,,---,0.00,VWS V14.00,2013-02-07 17:30:00,
2013-02-07 07:35:00,72.1,66.7,30.10,ENE,66,0.0,3.0,83,0.00,,---,0.00,VWS V14.00,2013-02-07 17:35:00,
2013-02-07 07:40:00,72.2,66.8,30.09,ENE,65,2.0,4.0,83,0.00,,---,0.00,VWS V14.00,2013-02-07 17:40:00,
2013-02-07 07:45:00,72.3,66.8,30.09,ENE,62,2.0,5.0,83,0.00,,---,0.00,VWS V14.00,2013-02-07 17:45:00,
2013-02-07 07:50:00,72.6,66.8,30.10,NE,49,3.0,6.0,82,0.00,,---,0.00,VWS V14.00,2013-02-07 17:50:00,
2013-02-07 07:55:00,72.7,66.5,30.10,East,86,0.0,10.0,81,0.00,,---,0.00,VWS V14.00,2013-02-07 17:55:00,
2013-02-07 08:00:00,72.8,66.6,30.10,ESE,107,2.0,10.0,81,0.00,,---,0.00,VWS V14.00,2013-02-07 18:00:00,
2013-02-07 08:05:00,72.9,67.1,30.10,ESE,107,0.0,4.0,82,0.00,,---,0.00,VWS V14.00,2013-02-07 18:05:00,
2013-02-07 08:10:00,73.0,67.2,30.10,East,93,7.0,7.0,82,0.00,,---,0.00,VWS V14.00,2013-02-07 18:10:00,
2013-02-07 08:15:00,73.1,67.3,30.10,ENE,71,2.0,7.0,82,0.00,,---,0.00,VWS V14.00,2013-02-07 18:15:00,
2013-02-07 08:20:00,73.3,67.8,30.10,ENE,71,1.0,7.0,83,0.00,,---,0.00,VWS V14.00,2013-02-07 18:20:00,
2013-02-07 08:25:00,73.4,67.6,30.10,ENE,66,2.0,7.0,82,0.00,,---,0.00,VWS V14.00,2013-02-07 18:25:00,
2013-02-07 08:30:00,73.5,67.7,30.10,NE,42,1.0,9.0,82,0.00,,---,0.00,VWS V14.00,2013-02-07 18:30:00,
2013-02-07 08:35:00,73.7,67.9,30.10,NE,42,0.0,1.0,82,0.00,,---,0.00,VWS V14.00,2013-02-07 18:35:00,
2013-02-07 08:40:00,73.9,68.1,30.11,SE,137,1.0,13.0,82,0.00,,---,0.00,VWS V14.00,2013-02-07 18:40:00,
2013-02-07 08:45:00,74.2,68.0,30.11,SE,124,1.0,13.0,81,0.00,,---,0.00,VWS V14.00,2013-02-07 18:45:00,
2013-02-07 08:50:00,74.3,67.7,30.11,NE,51,2.0,13.0,80,0.00,,---,0.00,VWS V14.00,2013-02-07 18:50:00,
2013-02-07 08:55:00,74.3,67.7,30.11,ENE,66,3.0,13.0,80,0.00,,---,0.00,VWS V14.00,2013-02-07 18:55:00,
2013-02-07 09:00:00,74.3,67.7,30.11,ENE,65,0.0,13.0,80,0.00,,---,0.00,VWS V14.00,2013-02-07 19:00:00,
2013-02-07 09:05:00,74.4,67.8,30.11,ENE,68,3.0,5.0,80,0.00,,---,0.00,VWS V14.00,2013-02-07 19:05:00,
2013-02-07 09:10:00,74.5,67.9,30.11,NE,51,1.0,8.0,80,0.00,,---,0.00,VWS V14.00,2013-02-07 19:10:00,
2013-02-07 09:15:00,74.6,68.0,30.11,ENE,69,2.0,8.0,80,0.00,,---,0.00,VWS V14.00,2013-02-07 19:15:00,
2013-02-07 09:20:00,74.8,68.2,30.12,ENE,69,3.0,8.0,80,0.00,,---,0.00,VWS V14.00,2013-02-07 19:20:00,
2013-02-07 09:25:00,75.0,68.4,30.12,ESE,115,1.0,8.0,80,0.00,,---,0.00,VWS V14.00,2013-02-07 19:25:00,
2013-02-07 09:30:00,75.3,68.0,30.12,NNE,26,0.0,8.0,78,0.00,,---,0.00,VWS V14.00,2013-02-07 19:30:00,
2013-02-07 09:35:00,75.1,67.8,30.12,ENE,61,0.0,7.0,78,0.00,,---,0.00,VWS V14.00,2013-02-07 19:35:00,
2013-02-07 09:40:00,74.9,68.3,30.12,ENE,57,2.0,8.0,80,0.00,,---,0.00,VWS V14.00,2013-02-07 19:40:00,
2013-02-07 09:45:00,75.0,68.4,30.12,NE,56,0.0,8.0,80,0.00,,---,0.00,VWS V14.00,2013-02-07 19:45:00,
2013-02-07 09:50:00,74.9,67.9,30.12,NNE,25,0.0,8.0,79,0.00,,---,0.00,VWS V14.00,2013-02-07 19:50:00,
2013-02-07 09:55:00,75.1,68.2,30.12,North,5,2.0,8.0,79,0.00,,---,0.00,VWS V14.00,2013-02-07 19:55:00,
2013-02-07 10:00:00,75.0,68.1,30.12,North,360,4.0,9.0,79,0.00,,---,0.00,VWS V14.00,2013-02-07 20:00:00,
2013-02-07 10:05:00,75.0,68.4,30.12,ENE,61,3.0,5.0,80,0.00,,---,0.00,VWS V14.00,2013-02-07 20:05:00,
2013-02-07 10:10:00,75.1,68.5,30.12,East,79,1.0,9.0,80,0.00,,---,0.00,VWS V14.00,2013-02-07 20:10:00,
2013-02-07 10:15:00,75.2,68.2,30.12,SE,141,6.0,9.0,79,0.00,,---,0.00,VWS V14.00,2013-02-07 20:15:00,
2013-02-07 10:20:00,75.3,68.3,30.12,SE,134,0.0,9.0,79,0.00,,---,0.00,VWS V14.00,2013-02-07 20:20:00,
2013-02-07 10:25:00,75.5,68.5,30.12,SE,140,5.0,9.0,79,0.00,,---,0.00,VWS V14.00,2013-02-07 20:25:00,
2013-02-07 10:30:00,75.4,68.4,30.12,NE,51,4.0,10.0,79,0.00,,---,0.00,VWS V14.00,2013-02-07 20:30:00,
2013-02-07 10:35:00,75.1,68.2,30.12,NE,40,4.0,6.0,79,0.00,,---,0.00,VWS V14.00,2013-02-07 20:35:00,
2013-02-07 10:40:00,75.1,68.5,30.12,ESE,115,0.0,8.0,80,0.00,,---,0.00,VWS V14.00,2013-02-07 20:40:00,
2013-02-07 10:45:00,75.3,68.7,30.12,NE,47,5.0,8.0,80,0.00,,---,0.00,VWS V14.00,2013-02-07 20:45:00,
2013-02-07 10:50:00,75.3,68.7,30.12,NNW,342,5.0,11.0,80,0.00,,---,0.00,VWS V14.00,2013-02-07 20:50:00,
2013-02-07 10:55:00,75.2,68.2,30.12,ENE,64,3.0,11.0,79,0.00,,---,0.00,VWS V14.00,2013-02-07 20:55:00,
2013-02-07 11:00:00,75.3,68.7,30.12,ENE,59,3.0,11.0,80,0.00,,---,0.00,VWS V14.00,2013-02-07 21:00:00,
2013-02-07 11:05:00,75.2,68.2,30.11,ENE,60,1.0,6.0,79,0.00,,---,0.00,VWS V14.00,2013-02-07 21:05:00,
2013-02-07 11:10:00,75.6,69.0,30.11,East,95,0.0,7.0,80,0.00,,---,0.00,VWS V14.00,2013-02-07 21:10:00,
2013-02-07 11:15:00,75.9,68.9,30.11,SE,142,2.0,8.0,79,0.00,,---,0.00,VWS V14.00,2013-02-07 21:15:00,
2013-02-07 11:20:00,76.2,69.2,30.11,SE,128,0.0,8.0,79,0.00,,---,0.00,VWS V14.00,2013-02-07 21:20:00,
2013-02-07 11:25:00,76.4,69.0,30.11,ESE,119,1.0,8.0,78,0.00,,---,0.00,VWS V14.00,2013-02-07 21:25:00,
2013-02-07 11:30:00,76.6,69.2,30.11,SE,129,4.0,8.0,78,0.00,,---,0.00,VWS V14.00,2013-02-07 21:30:00,
2013-02-07 11:35:00,76.7,68.9,30.11,East,86,3.0,15.0,77,0.00,,---,0.00,VWS V14.00,2013-02-07 21:35:00,
2013-02-07 11:40:00,76.5,68.8,30.11,ENE,76,0.0,15.0,77,0.00,,---,0.00,VWS V14.00,2013-02-07 21:40:00,
2013-02-07 11:45:00,76.3,68.2,30.10,SE,144,9.0,15.0,76,0.00,,---,0.00,VWS V14.00,2013-02-07 21:45:00,
2013-02-07 11:50:00,75.9,67.8,30.10,ENE,59,4.0,19.0,76,0.00,,---,0.00,VWS V14.00,2013-02-07 21:50:00,
2013-02-07 11:55:00,76.0,68.3,30.10,SE,141,4.0,19.0,77,0.00,,---,0.00,VWS V14.00,2013-02-07 21:55:00,
2013-02-07 12:00:00,75.9,68.2,30.10,SE,142,6.0,19.0,77,0.00,,---,0.00,VWS V14.00,2013-02-07 22:00:00,
2013-02-07 12:05:00,76.1,68.4,30.10,SE,128,8.0,17.0,77,0.00,,---,0.00,VWS V14.00,2013-02-07 22:05:00,
2013-02-07 12:10:00,76.0,68.3,30.09,SE,136,10.0,21.0,77,0.00,,---,0.00,VWS V14.00,2013-02-07 22:10:00,
2013-02-07 12:15:00,76.0,68.3,30.09,ESE,113,2.0,21.0,77,0.00,,---,0.00,VWS V14.00,2013-02-07 22:15:00,
2013-02-07 12:20:00,76.0,68.3,30.09,SSE,148,9.0,21.0,77,0.00,,---,0.00,VWS V14.00,2013-02-07 22:20:00,
2013-02-07 12:25:00,76.1,68.4,30.08,SE,143,2.0,21.0,77,0.00,,---,0.00,VWS V14.00,2013-02-07 22:25:00,
2013-02-07 12:30:00,76.2,68.5,30.08,SE,136,12.0,21.0,77,0.00,,---,0.00,VWS V14.00,2013-02-07 22:30:00,
2013-02-07 12:35:00,76.5,68.8,30.08,SE,143,4.0,13.0,77,0.00,,---,0.00,VWS V14.00,2013-02-07 22:35:00,
2013-02-07 12:40:00,76.6,68.9,30.08,SSE,153,5.0,18.0,77,0.00,,---,0.00,VWS V14.00,2013-02-07 22:40:00,
2013-02-07 12:45:00,77.1,69.3,30.08,East,94,2.0,18.0,77,0.00,,---,0.00,VWS V14.00,2013-02-07 22:45:00,
2013-02-07 12:50:00,77.5,69.3,30.08,NNE,15,3.0,18.0,76,0.00,,---,0.00,VWS V14.00,2013-02-07 22:50:00,
2013-02-07 12:55:00,77.3,68.8,30.08,ENE,63,4.0,18.0,75,0.00,,---,0.00,VWS V14.00,2013-02-07 22:55:00,
2013-02-07 13:00:00,76.9,68.8,30.07,ENE,77,4.0,18.0,76,0.00,,---,0.00,VWS V14.00,2013-02-07 23:00:00,
2013-02-07 13:05:00,76.7,68.9,30.07,ENE,77,2.0,11.0,77,0.00,,---,0.00,VWS V14.00,2013-02-07 23:05:00,
2013-02-07 13:10:00,76.6,68.9,30.07,SSE,153,6.0,16.0,77,0.00,,---,0.00,VWS V14.00,2013-02-07 23:10:00,
2013-02-07 13:15:00,76.5,68.8,30.07,SE,129,9.0,16.0,77,0.00,,---,0.00,VWS V14.00,2013-02-07 23:15:00,
2013-02-07 13:20:00,76.5,68.4,30.07,ENE,71,4.0,16.0,76,0.00,,---,0.00,VWS V14.00,2013-02-07 23:20:00,
2013-02-07 13:25:00,76.4,68.3,30.07,SSE,153,4.0,16.0,76,0.00,,---,0.00,VWS V14.00,2013-02-07 23:25:00,
2013-02-07 13:30:00,76.4,68.3,30.07,NE,44,0.0,16.0,76,0.00,,---,0.00,VWS V14.00,2013-02-07 23:30:00,
2013-02-07 13:35:00,76.3,68.6,30.06,ENE,67,5.0,11.0,77,0.00,,---,0.00,VWS V14.00,2013-02-07 23:35:00,
2013-02-07 13:40:00,76.0,68.7,30.07,ENE,76,1.0,14.0,78,0.00,,---,0.00,VWS V14.00,2013-02-07 23:40:00,
2013-02-07 13:45:00,76.0,68.7,30.06,ENE,71,0.0,14.0,78,0.00,,---,0.00,VWS V14.00,2013-02-07 23:45:00,
2013-02-07 13:50:00,76.0,68.7,30.06,ENE,59,5.0,14.0,78,0.00,,---,0.00,VWS V14.00,2013-02-07 23:50:00,
2013-02-07 13:55:00,75.8,68.1,30.06,ESE,123,4.0,14.0,77,0.00,,---,0.00,VWS V14.00,2013-02-07 23:55:00,
2013-02-07 14:00:00,75.7,68.4,30.06,NNE,19,3.0,14.0,78,0.00,,---,0.00,VWS V14.00,2013-02-08 00:00:00,
2013-02-07 14:05:00,75.6,68.6,30.06,NE,47,3.0,7.0,79,0.00,,---,0.00,VWS V14.00,2013-02-08 00:05:00,
2013-02-07 14:10:00,75.5,68.5,30.06,NE,54,1.0,12.0,79,0.00,,---,0.00,VWS V14.00,2013-02-08 00:10:00,
2013-02-07 14:15:00,75.4,68.4,30.06,NE,56,3.0,12.0,79,0.00,,---,0.00,VWS V14.00,2013-02-08 00:15:00,
2013-02-07 14:20:00,75.3,68.7,30.06,SSE,157,0.0,12.0,80,0.00,,---,0.00,VWS V14.00,2013-02-08 00:20:00,
2013-02-07 14:25:00,75.6,69.0,30.05,NE,36,10.0,12.0,80,0.00,,---,0.00,VWS V14.00,2013-02-08 00:25:00,
2013-02-07 14:30:00,75.4,68.8,30.06,NE,49,0.0,12.0,80,0.00,,---,0.00,VWS V14.00,2013-02-08 00:30:00,
2013-02-07 14:35:00,75.4,68.8,30.05,SE,126,0.0,10.0,80,0.00,,---,0.00,VWS V14.00,2013-02-08 00:35:00,
2013-02-07 14:40:00,75.5,68.9,30.05,NE,44,3.0,10.0,80,0.00,,---,0.00,VWS V14.00,2013-02-08 00:40:00,
2013-02-07 14:45:00,75.6,68.6,30.05,NNW,338,1.0,10.0,79,0.00,,---,0.00,VWS V14.00,2013-02-08 00:45:00,
2013-02-07 14:50:00,75.8,68.8,30.05,SE,130,1.0,10.0,79,0.00,,---,0.00,VWS V14.00,2013-02-08 00:50:00,
2013-02-07 14:55:00,75.9,68.2,30.05,SE,132,2.0,13.0,77,0.00,,---,0.00,VWS V14.00,2013-02-08 00:55:00,
2013-02-07 15:00:00,75.9,68.6,30.05,SE,136,0.0,13.0,78,0.00,,---,0.00,VWS V14.00,2013-02-08 01:00:00,
2013-02-07 15:05:00,76.0,68.3,30.05,NE,36,3.0,13.0,77,0.00,,---,0.00,VWS V14.00,2013-02-08 01:05:00,
2013-02-07 15:10:00,75.9,68.9,30.04,WNW,286,0.0,13.0,79,0.00,,---,0.00,VWS V14.00,2013-02-08 01:10:00,
2013-02-07 15:15:00,75.8,68.5,30.04,NNE,33,7.0,14.0,78,0.00,,---,0.00,VWS V14.00,2013-02-08 01:15:00,
2013-02-07 15:20:00,75.7,69.1,30.04,NE,36,0.0,14.0,80,0.00,,---,0.00,VWS V14.00,2013-02-08 01:20:00,
2013-02-07 15:25:00,75.6,68.6,30.04,NNW,348,2.0,14.0,79,0.00,,---,0.00,VWS V14.00,2013-02-08 01:25:00,
2013-02-07 15:30:00,75.5,68.5,30.04,ESE,123,5.0,14.0,79,0.00,,---,0.00,VWS V14.00,2013-02-08 01:30:00,
2013-02-07 15:35:00,75.5,68.5,30.05,SSE,161,2.0,13.0,79,0.00,,---,0.00,VWS V14.00,2013-02-08 01:35:00,
2013-02-07 15:40:00,75.9,68.6,30.05,SE,130,0.0,13.0,78,0.00,,---,0.00,VWS V14.00,2013-02-08 01:40:00,
2013-02-07 15:45:00,76.0,68.3,30.04,SE,142,2.0,13.0,77,0.00,,---,0.00,VWS V14.00,2013-02-08 01:45:00,
2013-02-07 15:50:00,75.9,68.6,30.04,ENE,73,0.0,13.0,78,0.00,,---,0.00,VWS V14.00,2013-02-08 01:50:00,
2013-02-07 15:55:00,76.2,68.5,30.04,ESE,105,5.0,13.0,77,0.00,,---,0.00,VWS V14.00,2013-02-08 01:55:00,
2013-02-07 16:00:00,76.2,68.5,30.04,South,184,4.0,13.0,77,0.00,,---,0.00,VWS V14.00,2013-02-08 02:00:00,
2013-02-07 16:05:00,76.1,68.4,30.05,ENE,59,7.0,8.0,77,0.00,,---,0.00,VWS V14.00,2013-02-08 02:05:00,
2013-02-07 16:10:00,75.6,67.9,30.05,ENE,61,0.0,10.0,77,0.00,,---,0.00,VWS V14.00,2013-02-08 02:10:00,
2013-02-07 16:15:00,75.6,68.3,30.04,East,81,1.0,10.0,78,0.00,,---,0.00,VWS V14.00,2013-02-08 02:15:00,
2013-02-07 16:20:00,75.5,68.2,30.04,NE,47,0.0,10.0,78,0.00,,---,0.00,VWS V14.00,2013-02-08 02:20:00,
2013-02-07 16:25:00,75.4,68.4,30.04,East,98,4.0,10.0,79,0.00,,---,0.00,VWS V14.00,2013-02-08 02:25:00,
2013-02-07 16:30:00,75.3,68.3,30.05,East,94,2.0,10.0,79,0.00,,---,0.00,VWS V14.00,2013-02-08 02:30:00,
2013-02-07 16:35:00,75.2,67.9,30.05,ESE,113,1.0,4.0,78,0.00,,---,0.00,VWS V14.00,2013-02-08 02:35:00,
2013-02-07 16:40:00,75.1,68.2,30.05,ENE,71,2.0,5.0,79,0.00,,---,0.00,VWS V14.00,2013-02-08 02:40:00,
2013-02-07 16:45:00,75.0,68.1,30.05,ENE,71,1.0,10.0,79,0.00,,---,0.00,VWS V14.00,2013-02-08 02:45:00,
2013-02-07 16:50:00,74.8,68.2,30.05,NE,55,0.0,10.0,80,0.00,,---,0.00,VWS V14.00,2013-02-08 02:50:00,
2013-02-07 16:55:00,74.8,68.2,30.05,NE,54,2.0,10.0,80,0.00,,---,0.00,VWS V14.00,2013-02-08 02:55:00,
2013-02-07 17:00:00,74.8,68.2,30.05,NE,46,1.0,10.0,80,0.00,,---,0.00,VWS V14.00,2013-02-08 03:00:00,
2013-02-07 17:05:00,74.6,68.0,30.05,NE,52,0.0,4.0,80,0.00,,---,0.00,VWS V14.00,2013-02-08 03:05:00,
2013-02-07 17:10:00,74.6,68.4,30.05,East,91,5.0,9.0,81,0.00,,---,0.00,VWS V14.00,2013-02-08 03:10:00,
2013-02-07 17:15:00,74.5,68.3,30.06,East,82,6.0,10.0,81,0.00,,---,0.00,VWS V14.00,2013-02-08 03:15:00,
2013-02-07 17:20:00,74.4,68.2,30.06,SE,126,4.0,10.0,81,0.00,,---,0.00,VWS V14.00,2013-02-08 03:20:00,
2013-02-07 17:25:00,74.2,68.0,30.06,ENE,63,0.0,10.0,81,0.00,,---,0.00,VWS V14.00,2013-02-08 03:25:00,
2013-02-07 17:30:00,74.2,68.0,30.06,NE,56,2.0,10.0,81,0.00,,---,0.00,VWS V14.00,2013-02-08 03:30:00,
2013-02-07 17:35:00,74.0,67.8,30.06,NE,55,2.0,5.0,81,0.00,,---,0.00,VWS V14.00,2013-02-08 03:35:00,
2013-02-07 17:40:00,74.0,67.8,30.06,NE,55,1.0,5.0,81,0.00,,---,0.00,VWS V14.00,2013-02-08 03:40:00,
2013-02-07 17:45:00,74.0,67.8,30.07,NE,56,2.0,6.0,81,0.00,,---,0.00,VWS V14.00,2013-02-08 03:45:00,
2013-02-07 17:50:00,73.9,67.7,30.07,ENE,61,5.0,13.0,81,0.00,,---,0.00,VWS V14.00,2013-02-08 03:50:00,
2013-02-07 17:55:00,73.8,67.6,30.07,ENE,61,1.0,13.0,81,0.00,,---,0.00,VWS V14.00,2013-02-08 03:55:00,
2013-02-07 18:00:00,73.8,67.6,30.07,ENE,61,4.0,13.0,81,0.00,,---,0.00,VWS V14.00,2013-02-08 04:00:00,
2013-02-07 18:05:00,73.7,67.5,30.08,NNE,31,1.0,6.0,81,0.00,,---,0.00,VWS V14.00,2013-02-08 04:05:00,
2013-02-07 18:10:00,73.6,67.4,30.08,NE,49,2.0,11.0,81,0.00,,---,0.00,VWS V14.00,2013-02-08 04:10:00,
2013-02-07 18:15:00,73.6,67.4,30.08,ENE,78,3.0,12.0,81,0.00,,---,0.00,VWS V14.00,2013-02-08 04:15:00,
2013-02-07 18:20:00,73.6,67.4,30.08,ENE,57,3.0,12.0,81,0.00,,---,0.00,VWS V14.00,2013-02-08 04:20:00,
2013-02-07 18:25:00,73.6,67.4,30.08,NNW,348,2.0,12.0,81,0.00,,---,0.00,VWS V14.00,2013-02-08 04:25:00,
2013-02-07 18:30:00,73.6,67.8,30.08,ENE,68,1.0,12.0,82,0.00,,---,0.00,VWS V14.00,2013-02-08 04:30:00,
2013-02-07 18:35:00,73.5,67.7,30.08,NE,52,6.0,11.0,82,0.00,,---,0.00,VWS V14.00,2013-02-08 04:35:00,
2013-02-07 18:40:00,73.4,67.2,30.08,ESE,119,5.0,11.0,81,0.00,,---,0.00,VWS V14.00,2013-02-08 04:40:00,
2013-02-07 18:45:00,73.4,67.2,30.08,ENE,69,5.0,11.0,81,0.00,,---,0.00,VWS V14.00,2013-02-08 04:45:00,
2013-02-07 18:50:00,73.4,67.2,30.08,NE,46,3.0,11.0,81,0.00,,---,0.00,VWS V14.00,2013-02-08 04:50:00,
2013-02-07 18:55:00,73.5,67.7,30.08,ENE,59,6.0,11.0,82,0.00,,---,0.00,VWS V14.00,2013-02-08 04:55:00,
2013-02-07 19:00:00,73.4,67.6,30.09,East,80,0.0,11.0,82,0.00,,---,0.00,VWS V14.00,2013-02-08 05:00:00,
2013-02-07 19:05:00,73.3,67.5,30.09,ENE,58,1.0,3.0,82,0.00,,---,0.00,VWS V14.00,2013-02-08 05:05:00,
2013-02-07 19:10:00,73.3,67.5,30.09,NNE,30,5.0,7.0,82,0.00,,---,0.00,VWS V14.00,2013-02-08 05:10:00,
2013-02-07 19:15:00,73.3,67.5,30.09,ENE,64,0.0,7.0,82,0.00,,---,0.00,VWS V14.00,2013-02-08 05:15:00,
2013-02-07 19:20:00,73.3,67.5,30.09,ENE,66,0.0,11.0,82,0.00,,---,0.00,VWS V14.00,2013-02-08 05:20:00,
2013-02-07 19:25:00,73.4,67.6,30.09,NE,41,2.0,11.0,82,0.00,,---,0.00,VWS V14.00,2013-02-08 05:25:00,
2013-02-07 19:30:00,73.4,67.6,30.09,ENE,67,2.0,11.0,82,0.00,,---,0.00,VWS V14.00,2013-02-08 05:30:00,
2013-02-07 19:35:00,73.3,67.5,30.10,East,80,0.0,12.0,82,0.00,,---,0.00,VWS V14.00,2013-02-08 05:35:00,
2013-02-07 19:40:00,73.3,67.1,30.10,ESE,109,4.0,13.0,81,0.00,,---,0.00,VWS V14.00,2013-02-08 05:40:00,
2013-02-07 19:45:00,73.3,67.1,30.11,NE,47,1.0,13.0,81,0.00,,---,0.00,VWS V14.00,2013-02-08 05:45:00,
2013-02-07 19:50:00,73.3,67.1,30.11,NE,51,1.0,13.0,81,0.00,,---,0.00,VWS V14.00,2013-02-08 05:50:00,
2013-02-07 19:55:00,73.3,67.1,30.11,ENE,63,2.0,13.0,81,0.00,,---,0.00,VWS V14.00,2013-02-08 05:55:00,
2013-02-07 20:00:00,73.3,67.5,30.12,NE,47,4.0,13.0,82,0.00,,---,0.00,VWS V14.00,2013-02-08 06:00:00,
2013-02-07 20:05:00,73.2,67.0,30.12,NNE,31,2.0,10.0,81,0.00,,---,0.00,VWS V14.00,2013-02-08 06:05:00,
2013-02-07 20:10:00,73.2,67.0,30.11,ENE,59,0.0,11.0,81,0.00,,---,0.00,VWS V14.00,2013-02-08 06:10:00,
2013-02-07 20:15:00,73.2,67.0,30.12,ENE,57,0.0,11.0,81,0.00,,---,0.00,VWS V14.00,2013-02-08 06:15:00,
2013-02-07 20:20:00,73.2,67.4,30.12,ENE,63,4.0,11.0,82,0.00,,---,0.00,VWS V14.00,2013-02-08 06:20:00,
2013-02-07 20:25:00,73.2,67.4,30.12,NE,42,3.0,11.0,82,0.00,,---,0.00,VWS V14.00,2013-02-08 06:25:00,
2013-02-07 20:30:00,73.1,67.3,30.12,ENE,73,3.0,11.0,82,0.00,,---,0.00,VWS V14.00,2013-02-08 06:30:00,
2013-02-07 20:35:00,73.1,67.3,30.12,ENE,71,0.0,10.0,82,0.00,,---,0.00,VWS V14.00,2013-02-08 06:35:00,
2013-02-07 20:40:00,73.1,67.3,30.12,ENE,68,3.0,10.0,82,0.00,,---,0.00,VWS V14.00,2013-02-08 06:40:00,
2013-02-07 20:45:00,73.0,67.2,30.13,ENE,74,2.0,10.0,82,0.00,,---,0.00,VWS V14.00,2013-02-08 06:45:00,
2013-02-07 20:50:00,72.9,66.7,30.13,ENE,77,4.0,10.0,81,0.00,,---,0.00,VWS V14.00,2013-02-08 06:50:00,
2013-02-07 20:55:00,72.9,66.7,30.13,ENE,62,11.0,11.0,81,0.00,,---,0.00,VWS V14.00,2013-02-08 06:55:00,
2013-02-07 21:00:00,72.9,66.7,30.13,ESE,117,4.0,11.0,81,0.00,,---,0.00,VWS V14.00,2013-02-08 07:00:00,
2013-02-07 21:05:00,72.9,66.7,30.13,NE,47,1.0,5.0,81,0.00,,---,0.00,VWS V14.00,2013-02-08 07:05:00,
2013-02-07 21:10:00,72.9,66.7,30.13,NE,51,3.0,12.0,81,0.00,,---,0.00,VWS V14.00,2013-02-08 07:10:00,
2013-02-07 21:15:00,72.9,66.7,30.13,NE,38,0.0,12.0,81,0.00,,---,0.00,VWS V14.00,2013-02-08 07:15:00,
2013-02-07 21:20:00,72.9,66.7,30.14,NE,47,3.0,12.0,81,0.00,,---,0.00,VWS V14.00,2013-02-08 07:20:00,
2013-02-07 21:25:00,72.9,67.1,30.14,NE,48,2.0,12.0,82,0.00,,---,0.00,VWS V14.00,2013-02-08 07:25:00,
2013-02-07 21:30:00,72.8,67.0,30.14,ENE,76,4.0,12.0,82,0.00,,---,0.00,VWS V14.00,2013-02-08 07:30:00,
2013-02-07 21:35:00,72.8,66.6,30.14,ENE,74,5.0,5.0,81,0.00,,---,0.00,VWS V14.00,2013-02-08 07:35:00,
2013-02-07 21:40:00,72.8,66.6,30.14,North,5,3.0,9.0,81,0.00,,---,0.00,VWS V14.00,2013-02-08 07:40:00,
2013-02-07 21:45:00,72.8,67.0,30.14,NE,40,1.0,9.0,82,0.00,,---,0.00,VWS V14.00,2013-02-08 07:45:00,
2013-02-07 21:50:00,72.8,66.6,30.14,NE,41,3.0,9.0,81,0.00,,---,0.00,VWS V14.00,2013-02-08 07:50:00,
2013-02-07 21:55:00,72.7,66.5,30.14,NE,41,2.0,9.0,81,0.00,,---,0.00,VWS V14.00,2013-02-08 07:55:00,
2013-02-07 22:00:00,72.8,67.0,30.14,NE,56,4.0,9.0,82,0.00,,---,0.00,VWS V14.00,2013-02-08 08:00:00,
2013-02-07 22:05:00,72.8,67.0,30.14,ENE,67,3.0,7.0,82,0.00,,---,0.00,VWS V14.00,2013-02-08 08:05:00,
2013-02-07 22:10:00,72.8,67.0,30.14,ENE,67,0.0,7.0,82,0.00,,---,0.00,VWS V14.00,2013-02-08 08:10:00,
2013-02-07 22:15:00,72.8,67.0,30.13,ENE,67,2.0,7.0,82,0.00,,---,0.00,VWS V14.00,2013-02-08 08:15:00,
2013-02-07 22:20:00,72.6,66.4,30.13,NE,45,0.0,10.0,81,0.00,,---,0.00,VWS V14.00,2013-02-08 08:20:00,
2013-02-07 22:25:00,72.6,66.4,30.14,East,95,5.0,10.0,81,0.00,,---,0.00,VWS V14.00,2013-02-08 08:25:00,
2013-02-07 22:30:00,72.6,66.4,30.14,ESE,107,5.0,12.0,81,0.00,,---,0.00,VWS V14.00,2013-02-08 08:30:00,
2013-02-07 22:35:00,72.6,66.8,30.14,ENE,60,0.0,7.0,82,0.00,,---,0.00,VWS V14.00,2013-02-08 08:35:00,
2013-02-07 22:40:00,72.7,66.9,30.14,ENE,60,0.0,7.0,82,0.00,,---,0.00,VWS V14.00,2013-02-08 08:40:00,
2013-02-07 22:45:00,72.8,67.0,30.14,East,88,3.0,7.0,82,0.00,,---,0.00,VWS V14.00,2013-02-08 08:45:00,
2013-02-07 22:50:00,72.7,66.9,30.14,East,82,0.0,7.0,82,0.00,,---,0.00,VWS V14.00,2013-02-08 08:50:00,
2013-02-07 22:55:00,72.7,67.2,30.14,ENE,73,3.0,7.0,83,0.00,,---,0.00,VWS V14.00,2013-02-08 08:55:00,
2013-02-07 23:00:00,72.7,67.2,30.14,ENE,73,1.0,7.0,83,0.00,,---,0.00,VWS V14.00,2013-02-08 09:00:00,
2013-02-07 23:05:00,72.7,67.2,30.13,ENE,58,3.0,4.0,83,0.00,,---,0.00,VWS V14.00,2013-02-08 09:05:00,
2013-02-07 23:10:00,72.7,67.2,30.14,ENE,76,2.0,9.0,83,0.00,,---,0.00,VWS V14.00,2013-02-08 09:10:00,
2013-02-07 23:15:00,72.6,67.2,30.14,ENE,78,0.0,9.0,83,0.00,,---,0.00,VWS V14.00,2013-02-08 09:15:00,
2013-02-07 23:20:00,72.6,67.2,30.14,ENE,65,3.0,9.0,83,0.00,,---,0.00,VWS V14.00,2013-02-08 09:20:00,
2013-02-07 23:25:00,72.5,67.1,30.14,ENE,69,5.0,10.0,83,0.00,,---,0.00,VWS V14.00,2013-02-08 09:25:00,
2013-02-07 23:30:00,72.5,66.7,30.14,NE,55,3.0,10.0,82,0.00,,---,0.00,VWS V14.00,2013-02-08 09:30:00,
2013-02-07 23:35:00,72.5,66.7,30.13,ENE,76,2.0,5.0,82,0.00,,---,0.00,VWS V14.00,2013-02-08 09:35:00,
2013-02-07 23:40:00,72.6,66.8,30.14,ENE,69,4.0,5.0,82,0.00,,---,0.00,VWS V14.00,2013-02-08 09:40:00,
2013-02-07 23:45:00,72.6,67.2,30.14,ENE,58,3.0,6.0,83,0.00,,---,0.00,VWS V14.00,2013-02-08 09:45:00,
2013-02-07 23:50:00,72.6,67.2,30.13,ENE,57,0.0,6.0,83,0.00,,---,0.00,VWS V14.00,2013-02-08 09:50:00,
2013-02-07 23:55:00,72.6,67.2,30.13,NE,55,3.0,10.0,83,0.00,,---,0.00,VWS V14.00,2013-02-08 09:55:00,